DELTA 1 DEB, 42583

Orbit data source: Space-Track

DELTA 1 DEB, 42583 is space debris in SSO originally from a launch on Tue, 06 Nov 1973 UTC launched from the Air Force Western Test Range (AFWTR). Debris objects in space refer to the collection of defunct objects orbiting the Earth. Examples of debris include non-operational satellites, rocket bodies, and fragments generated from explosions, collisions, or faulty payload assembly.

Loading next visibility...
Identifier
42583, 1973-086HX
Orbit
SSO
Country
Flag of USUS
Related business
Manufacturer
Unknown
Mission
Spacecraft
Bus & Motor
Unknown
Mass
Unknown
Launch date (UTC)
1973-11-06 (52 years ago)
Launch vehicle
Unknown
Launch site
Air Force Western Test Range (AFWTR)
Object type
Payload
Rocket body
Debris
Shape & HBR
Unknown shape, 0.1 m
Radar Cross Section
Small (<0.1 m²)

Expand to show TLE details & history
Last TLE update: 1 day ago

TLE from 1 day ago
0 DELTA 1 DEB
1 42583U 73086HX  26032.79323372  .00000195  00000-0  18843-2 0  9996
2 42583 101.8416  26.7976 0093787  16.1807 344.2216 12.34674014507645
Epoch: 2026-02-01T19:02Z
TLE epoch observation values (Epoch: 2026-02-01T19:02:15.393Z)
Latitude
-0.00001°
Longitude
-30.76431°
Altitude
1,460.484 km
Speed
7.164 km/s
True Right ascension
01h 47m 11s
True Declination
0° 00' 00"
Sunlit
Object was in daylight at epoch
Visualization orbit readout
Latitude
Unknown
Longitude
Unknown
Altitude
Unknown
Speed
Unknown
Apparent Right ascension
Unknown
Apparent Declination
Unknown
Sunlit
N/A
Visualization observer readout
Local Sidereal Time
06:35:45
Azimuth
Unknown
Elevation
Unknown
Doppler factor
Unknown
Orbital elements
Apogee altitude
1,600.972 km
Perigee altitude
1,452.695 km
Semi-major axis
7,904.971 km
Eccentricity
0.00938
Inclination
101.8416°
RAAN
26.7976°
Arg. of periapsis
16.1807°
True anomaly
343.92603°
Mean anomaly
344.2216°
Eccentric anomaly
344.07415°
Mean motion
3.08811 °/min
Orbital period
116.58 mins
BSTAR
0.0018843
Loading maneuver chart data...
Computing Atmospheric mass density...
Loading historical data...
Loading historical data...
Loading historical data...
Loading historical data...
Loading historical data...
Loading historical data...
Loading historical data...

Documentation

Showing up to 5 results
|